[[{"header":{"parameterUnit":"m.s-1","parameterCategory":1,"la1":30.2991,"la2":30.254,"lo1":-89.0895,"lo2":-89.0444,"dy":0.0017,"dx":0.0017,"nx":28,"ny":28,"refTime":"2023-03-30T21:00:00:Z","depth":0,"parameterNumber":2,"parameterNumberName":"U-component_of_WINDS"},"data":[0,0,0,0,0,0,0,0,0,0,0,0,0,0,0,0,0,0,0,0,0,0,0,0,0,0,0,0,0,0,0,0,0,0,0,0,0,0,0,0,0,0,0,0,0,0,0,0,0,0,0,0,0,0,0,0,0,0,2.9583,2.9583,0,2.9627,2.9627,2.9628,2.9595,2.9594,2.9592,2.9591,2.9641,2.9643,2.9646,0,0,0,0,0,0,0,0,0,0,0,0,0,2.9475,2.9478,2.9582,2.9583,2.9584,2.9627,2.9627,2.9628,2.9595,2.9594,2.9592,2.959,2.964,2.9643,2.9646,0,0,0,0,0,0,0,0,0,0,0,0,0,2.9521,2.9478,2.9582,2.9573,2.9572,2.9626,2.9627,2.9628,2.9596,2.9594,2.9591,2.9589,2.9639,2.9643,2.9647,2.9715,0,0,2.9659,2.9661,0,0,0,0,0,0,0,0,2.9519,2.9525,2.9573,2.9573,2.9573,2.9603,2.9608,2.9657,2.9596,2.9587,2.9591,2.9588,2.963,2.9635,2.9648,2.9717,2.9719,2.9659,2.9662,2.9663,2.9665,0,0,0,0,0,0,0,2.9515,2.9523,2.96,2.9574,2.9574,2.9568,2.9572,2.9617,2.962,2.9588,2.9585,2.9591,2.963,2.9644,2.9649,2.972,2.9659,2.9663,2.9665,2.9667,2.9849,2.9851,0,0,0,0,0,0,2.9513,2.9521,2.9599,2.9601,2.954,2.9571,2.9576,2.9596,2.962,2.9621,2.9593,2.9589,2.9638,2.9644,2.9651,2.9732,2.9663,2.9667,2.9669,2.9846,2.9849,2.9852,0,0,0,0,0,0,2.951,2.952,2.9597,2.956,2.957,2.9575,2.9598,2.9598,2.9612,2.9623,2.9624,2.9606,2.9637,2.9645,2.9699,2.9734,2.9669,2.9673,2.9843,2.9847,2.985,2.9896,0,0,0,0,0,0,2.9507,2.9519,2.9544,2.9561,2.9572,2.9643,2.96,2.96,2.9618,2.9614,2.9637,2.9638,2.9636,2.9693,2.9703,2.9738,2.9676,2.984,2.9845,2.9849,2.9892,2.9901,2.9909,0,0,0,0,0,2.9504,2.9555,2.9545,2.9555,2.9602,2.9645,2.9651,2.9646,2.9621,2.9647,2.9655,2.9638,2.9728,2.9699,2.971,2.9747,2.9838,2.9844,2.9849,2.9888,2.9899,2.9909,0,0,0,0,0,0,2.9543,2.9557,2.9546,2.9605,2.9624,2.9639,2.9671,2.9658,2.9686,2.9681,2.9675,2.968,2.9737,2.9747,2.9714,2.9814,2.978,2.9787,2.9805,2.9816,2.9825,2.9821,2.9679,0,0,0,0,0,2.9558,2.959,2.9602,2.9652,2.9662,2.9665,2.9684,2.9678,2.9698,2.9707,2.9718,2.974,2.9773,2.9795,2.9827,2.9893,2.9898,2.9924,2.9933,2.994,2.9947,2.9984,2.9996,2.987,2.987,2.987,0,0,2.959,2.9602,2.9623,2.9661,2.9675,2.971,2.9672,2.9711,2.9737,2.9713,2.9764,2.9774,2.9798,2.9859,2.9886,2.9869,2.9983,2.9947,2.9952,2.9955,2.9991,3.0003,3.0013,2.9873,2.9873,2.9872,0,0,2.9666,2.9678,2.9722,2.9737,2.9759,2.9761,2.9771,2.9789,2.9794,2.9846,2.9829,2.9861,2.9919,2.9937,2.9953,3.0039,3.0025,3.0049,3.0094,3.0131,3.0141,3.0149,3.0181,3.0192,3.0056,3.0056,3.0056,0,2.9704,2.9754,2.9747,2.9786,2.9804,2.9783,2.9829,2.9845,2.9876,2.989,2.987,2.9942,2.9957,3.0022,3.0043,3.0057,3.007,3.0046,3.014,3.0148,3.0157,3.0186,3.0198,3.0059,3.0059,3.0059,3.0058,0,2.98,2.9835,2.9868,2.9898,2.992,2.9962,2.9963,2.9987,2.998,2.9985,3.0038,3.0055,3.009,3.0105,3.01,3.0171,3.0159,3.014,3.0105,3.0171,3.0199,3.021,3.0063,3.0062,3.0061,3.0061,0,0,2.99,2.9926,2.9939,2.9952,2.9976,3.0004,3.0047,3.0079,3.01,3.0123,3.016,3.021,3.0192,3.0211,3.0208,3.0239,3.0307,3.0216,3.0217,3.0233,3.0387,3.0402,3.0415,3.0298,3.03,3.0302,3.0386,0,2.9978,3.005,3.0046,3.0114,3.0148,3.013,3.0167,3.0187,3.0193,3.0224,3.0231,3.0267,3.024,3.0252,3.0283,3.0292,3.0338,3.0286,3.0333,3.0335,3.0327,3.0429,3.0444,3.0522,3.0396,3.0398,3.0399,0,3.0077,3.0103,3.0175,3.0194,3.0208,3.0241,3.0272,3.0301,3.0324,3.0326,3.0348,3.034,3.0385,3.0349,3.0412,3.0377,3.0397,3.0405,3.0408,3.0412,3.0371,3.0436,3.0547,3.0558,3.0416,3.0415,3.0414,0,3.0144,3.0197,3.0247,3.0259,3.0283,3.0307,3.0318,3.0339,3.0359,3.0387,3.0401,3.0434,3.0452,3.0479,3.0481,3.0454,3.0545,3.0509,3.0549,3.0549,3.0568,3.0567,3.0684,3.0581,3.0581,3.0581,3.0581,0,3.0231,3.0276,3.0277,3.0308,3.0358,3.0354,3.0404,3.0414,3.0432,3.0466,3.0453,3.0485,3.0485,3.0519,3.0521,3.0573,3.0582,3.0586,3.0586,3.0587,3.0586,3.0599,3.0594,3.0584,3.0583,3.0583,3.0582,0,3.0313,3.0316,3.0369,3.0387,3.0393,3.043,3.0446,3.0477,3.0482,3.0525,3.0535,3.0544,3.0583,3.0587,3.0633,3.0634,3.0698,3.0692,3.069,3.0689,3.0729,3.0725,3.0857,3.0875,3.0761,3.0762,3.0763,0,3.0368,3.0402,3.0424,3.0445,3.0458,3.0492,3.0513,3.0511,3.0534,3.0563,3.059,3.0627,3.0657,3.0721,3.0732,3.0768,3.0763,3.0807,3.0768,3.0768,3.0764,3.0761,3.0765,3.0814,3.0815,3.0816,3.0817,0,3.0465,3.0465,3.0495,3.0526,3.0551,3.0576,3.0599,3.0618,3.0619,3.0646,3.0685,3.0708,3.0754,3.0792,3.0827,3.0841,3.083,3.083,3.0841,3.0842,3.0839,3.0841,3.071,3.0826,3.0825,3.0825,3.0824,3.0824,3.0536,3.0565,3.0586,3.062,3.0638,3.066,3.0689,3.0699,3.0731,3.0767,3.0765,3.0809,3.0832,3.0878,3.0894,3.093,3.0915,3.0931,3.0935,3.0939,3.0943,3.0834,3.0936,3.0936,3.0936,3.0935,3.0935,0,3.0633,3.0645,3.0677,3.0709,3.0737,3.0723,3.0749,3.0773,3.0811,3.0834,3.0863,3.0909,3.0946,3.0961,3.0998,3.1023,3.102,3.1033,3.1031,3.1035,3.0954,3.0941,3.1036,3.1036,3.1036,3.1036,3.1036,3.1036,3.0686,3.0736,3.0739,3.0798,3.0811,3.0852,3.0868,3.0889,3.0907,3.0958,3.0989,3.0998,3.1018,3.1056,3.1091,3.1094,3.1109,3.1125,3.1126,3.105,3.104,3.1031,3.1018,3.1128,3.1128,3.1204,3.1204,3.1205]},{"header":{"parameterUnit":"m.s-1","parameterCategory":1,"la1":30.2991,"la2":30.254,"lo1":-89.0895,"lo2":-89.0444,"dy":0.0017,"dx":0.0017,"nx":28,"ny":28,"refTime":"2023-03-30T21:00:00:Z","depth":0,"parameterNumber":3,"parameterNumberName":"V-component_of_WINDS"},"data":[0,0,0,0,0,0,0,0,0,0,0,0,0,0,0,0,0,0,0,0,0,0,0,0,0,0,0,0,0,0,0,0,0,0,0,0,0,0,0,0,0,0,0,0,0,0,0,0,0,0,0,0,0,0,0,0,0,0,3.473,3.4731,0,3.4877,3.4878,3.488,3.4895,3.4893,3.4892,3.489,3.5041,3.5047,3.5052,0,0,0,0,0,0,0,0,0,0,0,0,0,3.4462,3.4466,3.4729,3.4731,3.4733,3.4876,3.4878,3.488,3.4895,3.4893,3.4891,3.489,3.5039,3.5046,3.5052,0,0,0,0,0,0,0,0,0,0,0,0,0,3.459,3.4468,3.4729,3.4758,3.4762,3.4876,3.4878,3.4881,3.4895,3.4893,3.4891,3.4889,3.5037,3.5045,3.5053,3.5149,0,0,3.5078,3.5082,0,0,0,0,0,0,0,0,3.4583,3.46,3.4752,3.4756,3.4761,3.4865,3.4839,3.4971,3.4896,3.4845,3.489,3.4888,3.4984,3.4997,3.5029,3.5156,3.5163,3.5079,3.5084,3.5087,3.509,0,0,0,0,0,0,0,3.4574,3.4594,3.4788,3.4754,3.4759,3.4763,3.4779,3.4864,3.4926,3.4849,3.485,3.4868,3.4986,3.5022,3.5033,3.5165,3.5079,3.5086,3.5091,3.5094,3.5379,3.5382,0,0,0,0,0,0,3.456,3.4586,3.4783,3.4792,3.4664,3.477,3.4788,3.4834,3.4925,3.4936,3.4869,3.4868,3.5009,3.5024,3.5038,3.5158,3.5087,3.5095,3.51,3.5376,3.538,3.5382,0,0,0,0,0,0,3.4554,3.4577,3.4777,3.469,3.4715,3.4777,3.4829,3.4838,3.4873,3.494,3.4951,3.4894,3.5008,3.5027,3.5122,3.5163,3.5099,3.5106,3.5373,3.5377,3.5381,3.5397,0,0,0,0,0,0,3.4546,3.4575,3.4612,3.469,3.472,3.4858,3.4831,3.4842,3.4887,3.4886,3.4966,3.4977,3.5007,3.511,3.513,3.5173,3.5112,3.537,3.5375,3.538,3.5393,3.5401,3.5408,0,0,0,0,0,3.4536,3.461,3.4614,3.4637,3.4768,3.486,3.4877,3.491,3.489,3.4928,3.4971,3.4975,3.5155,3.5119,3.5142,3.5189,3.5367,3.5374,3.5379,3.539,3.5399,3.5408,0,0,0,0,0,0,3.4535,3.4621,3.4626,3.4727,3.4786,3.4863,3.4912,3.4919,3.4986,3.4982,3.502,3.5038,3.5132,3.5169,3.5128,3.5287,3.5259,3.527,3.5259,3.5269,3.5276,3.5266,3.5119,0,0,0,0,0,3.4547,3.4615,3.4686,3.4769,3.4798,3.485,3.4891,3.4912,3.4974,3.5,3.505,3.511,3.5181,3.5227,3.5295,3.5398,3.5416,3.5441,3.5448,3.5454,3.5464,3.5522,3.5534,3.5402,3.5402,3.5402,0,0,3.4571,3.4627,3.4667,3.477,3.4818,3.4888,3.4871,3.4945,3.4998,3.5011,3.5104,3.5143,3.5213,3.5312,3.5359,3.5347,3.5504,3.5462,3.5466,3.5473,3.5529,3.5542,3.5553,3.5406,3.5406,3.5405,0,0,3.4652,3.4701,3.4775,3.4824,3.4897,3.4931,3.4949,3.5024,3.505,3.5144,3.5156,3.5218,3.5339,3.5389,3.543,3.553,3.5536,3.5551,3.559,3.5646,3.5656,3.5666,3.5703,3.5715,3.556,3.556,3.556,0,3.4674,3.478,3.4813,3.4888,3.4933,3.4947,3.5024,3.5069,3.5161,3.5192,3.5177,3.5329,3.5377,3.5489,3.5513,3.5545,3.5568,3.5543,3.5652,3.5662,3.5671,3.5707,3.5721,3.5561,3.5561,3.5561,3.5561,0,3.4803,3.4877,3.4928,3.5017,3.5067,3.5142,3.5187,3.5234,3.525,3.5285,3.5381,3.5439,3.552,3.5548,3.5563,3.5662,3.5652,3.5644,3.5618,3.5685,3.5719,3.5733,3.5563,3.5563,3.5562,3.5562,0,0,3.4889,3.4995,3.5013,3.5054,3.5135,3.5193,3.5268,3.5348,3.5388,3.545,3.5515,3.5617,3.561,3.5657,3.5678,3.5727,3.5804,3.5713,3.5716,3.5729,3.5917,3.5924,3.5939,3.5807,3.581,3.5812,3.5912,0,3.498,3.5116,3.5148,3.5264,3.5333,3.5347,3.5413,3.5471,3.5505,3.5569,3.5607,3.5679,3.5664,3.5692,3.5741,3.5784,3.5842,3.5777,3.5869,3.5872,3.5853,3.5957,3.5964,3.6056,3.5925,3.5927,3.5929,0,3.5106,3.5171,3.5295,3.5368,3.5398,3.5457,3.5532,3.5592,3.5657,3.5679,3.5731,3.5748,3.5827,3.5795,3.5906,3.5861,3.59,3.5927,3.5931,3.5942,3.5906,3.5972,3.6085,3.6099,3.595,3.5948,3.5947,0,3.5157,3.5276,3.5366,3.54,3.5487,3.5529,3.5567,3.563,3.5676,3.5741,3.5771,3.5845,3.5886,3.5943,3.5979,3.5952,3.6087,3.6058,3.6108,3.6108,3.6138,3.6136,3.626,3.616,3.616,3.6159,3.6159,0,3.5257,3.5332,3.5391,3.5446,3.5531,3.5566,3.5649,3.5687,3.5743,3.5806,3.5823,3.5882,3.5925,3.599,3.6018,3.6106,3.6124,3.6144,3.6152,3.6144,3.6142,3.6172,3.6167,3.6163,3.6162,3.6162,3.6161,0,3.533,3.5372,3.5471,3.5545,3.5566,3.5625,3.5689,3.5743,3.5778,3.5858,3.5878,3.5933,3.601,3.6052,3.6148,3.6167,3.6266,3.6269,3.6244,3.6248,3.6296,3.6292,3.6446,3.6468,3.6352,3.6353,3.6354,0,3.5392,3.545,3.5531,3.5575,3.5614,3.5684,3.573,3.5767,3.5815,3.5894,3.5939,3.6017,3.6082,3.6204,3.6253,3.6327,3.6333,3.6381,3.6344,3.6335,3.6335,3.6332,3.6338,3.6388,3.6389,3.639,3.6391,0,3.5498,3.5516,3.5583,3.5657,3.5713,3.5773,3.5833,3.5867,3.5914,3.5967,3.6046,3.6096,3.6195,3.6273,3.635,3.639,3.6399,3.6402,3.6418,3.6412,3.6396,3.6407,3.6264,3.6399,3.6398,3.6398,3.6397,3.6397,3.5568,3.5621,3.5687,3.5761,3.581,3.5865,3.592,3.5962,3.6028,3.6112,3.6129,3.6213,3.6277,3.6382,3.6424,3.649,3.6481,3.6503,3.6509,3.6515,3.6518,3.6384,3.6504,3.6504,3.6504,3.6504,3.6504,0,3.5676,3.5719,3.5787,3.587,3.5929,3.5931,3.5997,3.6046,3.612,3.6179,3.6242,3.6333,3.6409,3.6463,3.654,3.6582,3.6589,3.6602,3.66,3.6609,3.6521,3.6501,3.6595,3.6595,3.6595,3.6595,3.6595,3.6595,3.5739,3.583,3.5855,3.5969,3.6012,3.6094,3.6132,3.6183,3.6231,3.6332,3.6395,3.643,3.6487,3.6568,3.6637,3.6651,3.6679,3.6692,3.6707,3.6625,3.6615,3.6606,3.6587,3.6698,3.6698,3.6789,3.679,3.6791]}]]